TimeMDT,TemperatureF,Dew PointF,Humidity,Sea Level PressureIn,VisibilityMPH,Wind Direction,Wind SpeedMPH,Gust SpeedMPH,PrecipitationIn,Events,Conditions,WindDirDegrees,DateUTC
12:53 AM,37.0,34.0,89,29.90,10.0,NE,4.6,-,N/A,,Overcast,40,2013-05-15 06:53:00
1:53 AM,37.9,32.0,79,29.87,10.0,ENE,3.5,-,N/A,,Clear,70,2013-05-15 07:53:00
2:53 AM,36.0,30.9,82,29.91,10.0,Calm,Calm,-,N/A,,Clear,0,2013-05-15 08:53:00
3:53 AM,33.1,30.0,89,29.94,10.0,NE,4.6,-,N/A,,Clear,40,2013-05-15 09:53:00
4:53 AM,33.1,30.9,92,29.98,10.0,Calm,Calm,-,N/A,,Mostly Cloudy,0,2013-05-15 10:53:00
5:53 AM,33.1,30.0,89,29.96,10.0,Calm,Calm,-,N/A,,Clear,0,2013-05-15 11:53:00
6:53 AM,37.0,30.9,79,29.97,10.0,NNE,3.5,-,N/A,,Clear,20,2013-05-15 12:53:00
7:53 AM,42.1,32.0,67,29.94,10.0,NNE,6.9,-,N/A,,Mostly Cloudy,30,2013-05-15 13:53:00
8:53 AM,50.0,32.0,50,29.88,10.0,Calm,Calm,-,N/A,,Scattered Clouds,0,2013-05-15 14:53:00
9:53 AM,55.9,32.0,40,29.84,10.0,Calm,Calm,-,N/A,,Partly Cloudy,0,2013-05-15 15:53:00
10:53 AM,55.9,27.0,33,29.86,-9999.0,North,-9999.0,-,N/A,,Overcast,0,2013-05-15 16:53:00
11:53 AM,51.1,32.0,48,29.88,10.0,WSW,8.1,-,N/A,,Overcast,250,2013-05-15 17:53:00
12:53 PM,57.9,30.0,35,29.82,10.0,Variable,3.5,-,N/A,,Scattered Clouds,0,2013-05-15 18:53:00
1:53 PM,52.0,33.1,49,29.87,10.0,SSE,11.5,18.4,N/A,,Mostly Cloudy,150,2013-05-15 19:53:00
2:09 PM,48.2,35.6,62,30.26,10.0,SSE,12.7,27.6,N/A,Thunderstorm,Overcast,160,2013-05-15 20:09:00
2:26 PM,46.4,35.6,66,30.27,10.0,SSE,10.4,-,0.00,Rain,Light Rain,150,2013-05-15 20:26:00
2:53 PM,46.0,36.0,68,29.95,10.0,ESE,6.9,-,0.00,,Overcast,120,2013-05-15 20:53:00
3:53 PM,50.0,37.9,63,29.92,10.0,North,9.2,-,0.01,,Overcast,10,2013-05-15 21:53:00
4:53 PM,50.0,36.0,59,29.90,10.0,NW,3.5,-,N/A,,Mostly Cloudy,310,2013-05-15 22:53:00
5:53 PM,48.9,35.1,59,29.89,10.0,South,11.5,-,0.00,,Partly Cloudy,190,2013-05-15 23:53:00
6:53 PM,46.9,37.0,68,29.89,10.0,SSE,4.6,-,0.00,,Overcast,150,2013-05-16 00:53:00
7:53 PM,43.0,36.0,76,29.89,10.0,South,8.1,-,0.01,,Overcast,170,2013-05-16 01:53:00
8:53 PM,39.9,36.0,86,29.85,10.0,ENE,3.5,-,0.00,,Clear,70,2013-05-16 02:53:00
9:53 PM,39.9,36.0,86,29.83,10.0,ESE,4.6,-,N/A,,Overcast,110,2013-05-16 03:53:00
10:53 PM,36.0,34.0,93,29.84,10.0,Calm,Calm,-,0.00,,Clear,0,2013-05-16 04:53:00
11:53 PM,33.1,32.0,96,29.89,10.0,Calm,Calm,-,N/A,,Clear,0,2013-05-16 05:53:00